When you browse on this site, cookies collect data to enhance your experience and personalize the content and advertising you see.
Visit our Privacy Policy to learn more. By continuing to use the site, you agree to this use of cookies and data.
  • In Austria
  • List of Countries
  • For 7 days
  • Water Temperature
  • Satellite Maps
  • Weather Map
  • News
  • Weather Widgets
  • user-avatar
    Login

    Hourly Weather Soma Bey

    Today, 21 November, Wednesday

    Time Temperature Precipitation Wind Pressure Humidity
    00:00 +22°C° 0 mm 4 mps 752 mmHg 44%
    01:00 +22°C° 0 mm 4 mps 752 mmHg 43%
    02:00 +22°C° 0 mm 4 mps 751 mmHg 42%
    03:00 +21°C° 0 mm 4 mps 751 mmHg 42%
    04:00 +21°C° 0 mm 3 mps 751 mmHg 42%
    05:00 +21°C° 0 mm 3 mps 751 mmHg 42%
    06:00 +22°C° 0 mm 3 mps 751 mmHg 39%
    07:00 +25°C° 0 mm 3 mps 752 mmHg 36%
    08:00 +26°C° 0 mm 4 mps 752 mmHg 33%
    09:00 +27°C° 0 mm 4 mps 752 mmHg 32%
    10:00 +29°C° 0 mm 4 mps 752 mmHg 31%
    11:00 +30°C° 0 mm 4 mps 751 mmHg 30%
    12:00 +30°C° 0 mm 4 mps 751 mmHg 30%
    13:00 +32°C° 0 mm 4 mps 750 mmHg 30%
    14:00 +32°C° 0 mm 4 mps 750 mmHg 30%
    15:00 +30°C° 0 mm 4 mps 750 mmHg 35%
    16:00 +29°C° 0 mm 3 mps 750 mmHg 39%
    17:00 +28°C° 0 mm 3 mps 750 mmHg 43%
    18:00 +27°C° 0 mm 3 mps 750 mmHg 47%
    19:00 +26°C° 0 mm 3 mps 750 mmHg 50%
    20:00 +25°C° 0 mm 3 mps 750 mmHg 54%
    21:00 +25°C° 0 mm 3 mps 750 mmHg 54%
    22:00 +25°C° 0 mm 3 mps 750 mmHg 54%
    23:00 +25°C° 0 mm 3 mps 750 mmHg 54%

    Tomorrow, 22 November, Thursday

    Time Temperature Precipitation Wind Pressure Humidity
    00:00 +24°C° 0 mm 3 mps 750 mmHg 53%
    01:00 +24°C° 0 mm 3 mps 750 mmHg 52%
    02:00 +24°C° 0 mm 3 mps 749 mmHg 50%
    03:00 +22°C° 0 mm 3 mps 749 mmHg 50%
    04:00 +22°C° 0 mm 3 mps 749 mmHg 49%
    05:00 +22°C° 0 mm 4 mps 749 mmHg 48%
    06:00 +23°C° 0 mm 4 mps 749 mmHg 44%
    07:00 +25°C° 0 mm 4 mps 749 mmHg 40%
    08:00 +26°C° 0 mm 4 mps 750 mmHg 35%
    09:00 +27°C° 0 mm 4 mps 750 mmHg 31%
    10:00 +28°C° 0 mm 4 mps 749 mmHg 27%
    11:00 +30°C° 0 mm 4 mps 749 mmHg 23%
    12:00 +30°C° 0 mm 5 mps 749 mmHg 23%
    13:00 +30°C° 0 mm 5 mps 748 mmHg 22%
    14:00 +30°C° 0 mm 5 mps 748 mmHg 22%
    15:00 +29°C° 0 mm 4 mps 748 mmHg 24%
    16:00 +28°C° 0 mm 4 mps 748 mmHg 26%
    17:00 +27°C° 0 mm 3 mps 748 mmHg 29%
    18:00 +27°C° 0 mm 3 mps 748 mmHg 31%
    19:00 +26°C° 0 mm 3 mps 749 mmHg 34%
    20:00 +25°C° 0 mm 3 mps 749 mmHg 37%
    21:00 +24°C° 0 mm 3 mps 749 mmHg 36%
    22:00 +24°C° 0 mm 3 mps 749 mmHg 36%
    23:00 +23°C° 0 mm 4 mps 749 mmHg 35%

    Day after tomorrow, 23 November, Friday

    Time Temperature Precipitation Wind Pressure Humidity
    00:00 +23°C° 0 mm 4 mps 749 mmHg 36%
    01:00 +22°C° 0 mm 4 mps 749 mmHg 36%
    02:00 +22°C° 0 mm 4 mps 749 mmHg 36%
    03:00 +21°C° 0 mm 4 mps 748 mmHg 38%
    04:00 +21°C° 0 mm 4 mps 748 mmHg 39%
    05:00 +21°C° 0 mm 4 mps 748 mmHg 40%
    06:00 +22°C° 0 mm 4 mps 749 mmHg 37%
    07:00 +23°C° 0 mm 4 mps 749 mmHg 34%
    08:00 +25°C° 0 mm 4 mps 750 mmHg 31%
    09:00 +26°C° 0 mm 5 mps 750 mmHg 29%
    10:00 +27°C° 0 mm 5 mps 750 mmHg 27%
    11:00 +28°C° 0 mm 5 mps 750 mmHg 26%
    12:00 +29°C° 0 mm 6 mps 749 mmHg 25%
    13:00 +29°C° 0 mm 6 mps 749 mmHg 25%
    14:00 +29°C° 0 mm 6 mps 749 mmHg 24%
    15:00 +28°C° 0 mm 6 mps 749 mmHg 28%
    16:00 +27°C° 0 mm 6 mps 749 mmHg 31%
    17:00 +26°C° 0 mm 6 mps 749 mmHg 34%
    18:00 +24°C° 0 mm 6 mps 749 mmHg 35%
    19:00 +23°C° 0 mm 6 mps 750 mmHg 36%
    20:00 +22°C° 0 mm 5 mps 750 mmHg 37%
    21:00 +22°C° 0 mm 5 mps 750 mmHg 40%
    22:00 +21°C° 0 mm 5 mps 750 mmHg 43%
    23:00 +20°C° 0 mm 5 mps 750 mmHg 46%

    24 November, Saturday

    Time Temperature Precipitation Wind Pressure Humidity
    00:00 +20°C° 0 mm 4 mps 750 mmHg 48%
    01:00 +19°C° 0 mm 4 mps 750 mmHg 51%
    02:00 +19°C° 0 mm 4 mps 750 mmHg 53%
    03:00 +18°C° 0 mm 4 mps 750 mmHg 56%
    04:00 +18°C° 0 mm 4 mps 750 mmHg 58%
    05:00 +18°C° 0 mm 4 mps 750 mmHg 61%
    06:00 +18°C° 0 mm 4 mps 750 mmHg 58%
    07:00 +19°C° 0 mm 4 mps 751 mmHg 56%
    08:00 +20°C° 0 mm 4 mps 751 mmHg 54%
    09:00 +21°C° 0 mm 3 mps 751 mmHg 50%
    10:00 +22°C° 0 mm 3 mps 751 mmHg 45%
    11:00 +24°C° 0 mm 3 mps 751 mmHg 40%
    12:00 +25°C° 0 mm 3 mps 751 mmHg 37%
    13:00 +26°C° 0 mm 4 mps 750 mmHg 35%
    14:00 +26°C° 0 mm 4 mps 750 mmHg 32%
    15:00 +26°C° 0 mm 4 mps 750 mmHg 35%
    16:00 +25°C° 0 mm 4 mps 751 mmHg 38%
    17:00 +23°C° 0 mm 4 mps 751 mmHg 40%
    18:00 +23°C° 0 mm 4 mps 751 mmHg 44%
    19:00 +22°C° 0 mm 4 mps 752 mmHg 47%
    20:00 +21°C° 0 mm 4 mps 752 mmHg 51%
    21:00 +21°C° 0 mm 4 mps 752 mmHg 53%
    22:00 +20°C° 0 mm 4 mps 752 mmHg 54%
    23:00 +20°C° 0 mm 4 mps 752 mmHg 56%

    25 November, Sunday

    Time Temperature Precipitation Wind Pressure Humidity
    00:00 +19°C° 0 mm 4 mps 752 mmHg 58%
    01:00 +19°C° 0 mm 4 mps 752 mmHg 59%
    02:00 +18°C° 0 mm 4 mps 752 mmHg 61%
    03:00 +18°C° 0 mm 4 mps 752 mmHg 62%
    04:00 +18°C° 0 mm 4 mps 752 mmHg 63%
    05:00 +18°C° 0 mm 4 mps 752 mmHg 64%
    06:00 +19°C° 0 mm 3 mps 752 mmHg 60%
    07:00 +20°C° 0 mm 3 mps 753 mmHg 57%
    08:00 +21°C° 0 mm 3 mps 753 mmHg 53%
    09:00 +22°C° 0 mm 3 mps 753 mmHg 50%
    10:00 +23°C° 0 mm 4 mps 753 mmHg 46%
    11:00 +25°C° 0 mm 4 mps 753 mmHg 42%
    12:00 +25°C° 0 mm 4 mps 752 mmHg 40%
    13:00 +26°C° 0 mm 4 mps 752 mmHg 38%
    14:00 +26°C° 0 mm 4 mps 751 mmHg 36%
    15:00 +25°C° 0 mm 4 mps 751 mmHg 40%
    16:00 +25°C° 0 mm 4 mps 751 mmHg 43%
    17:00 +23°C° 0 mm 4 mps 751 mmHg 46%
    18:00 +22°C° 0 mm 3 mps 752 mmHg 48%
    19:00 +22°C° 0 mm 3 mps 752 mmHg 51%
    20:00 +22°C° 0 mm 3 mps 752 mmHg 53%
    21:00 +21°C° 0 mm 3 mps 752 mmHg 54%
    22:00 +21°C° 0 mm 3 mps 752 mmHg 55%
    23:00 +20°C° 0 mm 3 mps 751 mmHg 57%

    26 November, Monday

    Time Temperature Precipitation Wind Pressure Humidity
    00:00 +20°C° 0 mm 3 mps 751 mmHg 58%
    01:00 +19°C° 0 mm 3 mps 751 mmHg 60%
    02:00 +19°C° 0 mm 3 mps 751 mmHg 62%
    03:00 +18°C° 0 mm 3 mps 751 mmHg 63%
    04:00 +18°C° 0 mm 3 mps 751 mmHg 65%
    05:00 +18°C° 0 mm 3 mps 751 mmHg 66%
    06:00 +19°C° 0 mm 3 mps 751 mmHg 62%
    07:00 +20°C° 0 mm 3 mps 751 mmHg 58%
    08:00 +21°C° 0 mm 3 mps 752 mmHg 54%
    09:00 +22°C° 0 mm 3 mps 751 mmHg 49%
    10:00 +24°C° 0 mm 3 mps 751 mmHg 45%
    11:00 +25°C° 0 mm 3 mps 751 mmHg 40%
    12:00 +26°C° 0 mm 3 mps 750 mmHg 38%
    13:00 +26°C° 0 mm 3 mps 750 mmHg 37%
    14:00 +27°C° 0 mm 3 mps 749 mmHg 36%
    15:00 +26°C° 0 mm 3 mps 749 mmHg 40%
    16:00 +25°C° 0 mm 3 mps 749 mmHg 44%
    17:00 +24°C° 0 mm 3 mps 749 mmHg 48%
    18:00 +24°C° 0 mm 2 mps 749 mmHg 51%
    19:00 +23°C° 0 mm 2 mps 750 mmHg 54%
    20:00 +23°C° 0 mm 2 mps 750 mmHg 57%
    21:00 +21°C° 0 mm 2 mps 750 mmHg 59%
    22:00 +21°C° 0 mm 2 mps 750 mmHg 60%
    23:00 +20°C° 0 mm 2 mps 750 mmHg 62%
    Show more